Flag for Ukraine Weather past 2 weeks in Odesa, Ukraine

Now
82 °F

Sunny.


Feels Like: 81 °F
Forecast: 69 / 85 °F
Wind: 6 mph from South

Location: Odesa Airport

Current Time: Jul 29, 2014 at 7:58:28 PM

Latest Report: Jul 29, 2014 at 7:30 PM


Visibility: 10 mi

Pressure: 29.89 "Hg

Humidity: 37%

Dew point: 54 °F

Location of OdesaLocation

Historic Weather in Odesa — Graph

°F

Odesa temperature yesterday

Maximum temperature yesterday: 88 °F (at 4:30 PM)
Minimum temperature yesterday: 66 °F (at 4:00 AM)
Average temperature yesterday: 78 °F

Past Weeks' High & Low Weather Summary

 TemperatureHumidityPressure
High93 °F (Jul 26, 3:00 PM)100% (Jul 17, 1:00 PM)30.04 "Hg (Jul 17, 1:00 PM)
Low64 °F (Jul 21, 5:00 AM)24% (Jul 26, 3:00 PM)29.74 "Hg (Jul 24, 5:30 AM)
Average77 °F60%29.86 "Hg
* Reported Jul 14 6:00 PM — Jul 29 6:30 PM, Odesa, Weather by CustomWeather, © 2014

Note: Actual official high and low records may vary slightly from our data, if they occured in-between our weather recording intervals... More about our weather records

Advertising

Odesa weather history for previous 24 hours

 ConditionsComfort  
Time TempWeatherWind HumidityBarometerVisibility
6:30 PM
Jul 29
84 °FSunny.1 mph33%29.92 "Hg10 mi
6:00 PM86 °FSunny.1 mph29%29.92 "Hg10 mi
5:30 PM88 °FSunny.6 mph29%29.92 "Hg10 mi
5:00 PM88 °FPassing clouds.8 mph27%29.92 "HgN/A
4:30 PM88 °FSunny.10 mph27%29.92 "Hg10 mi
4:00 PM88 °FPassing clouds.8 mph25%29.92 "HgN/A
3:30 PM88 °FPassing clouds.6 mph25%29.92 "HgN/A
3:00 PM88 °FPassing clouds.8 mph25%29.92 "HgN/A
2:30 PM88 °FPassing clouds.10 mph27%29.92 "HgN/A
2:00 PM88 °FPassing clouds.10 mph29%29.95 "HgN/A
1:30 PM86 °FPassing clouds.10 mph29%29.95 "HgN/A
1:00 PM86 °FPassing clouds.10 mph33%29.95 "HgN/A
12:30 PM84 °FPassing clouds.8 mph33%29.95 "HgN/A
12:00 PM84 °FPassing clouds.8 mph35%29.95 "HgN/A
11:30 AM82 °FPassing clouds.10 mph37%29.95 "HgN/A
11:00 AM82 °FPassing clouds.8 mph35%29.95 "HgN/A
10:30 AM81 °FPassing clouds.8 mph37%29.95 "HgN/A
10:00 AM81 °FPassing clouds.10 mph34%29.95 "HgN/A
9:30 AM81 °FPassing clouds.10 mph34%29.95 "HgN/A
9:00 AM77 °FPassing clouds.10 mph42%29.95 "HgN/A
8:30 AM77 °FPassing clouds.8 mph44%29.95 "HgN/A
8:00 AM75 °FPassing clouds.6 mph47%29.95 "HgN/A
7:30 AM73 °FPassing clouds.6 mph53%29.95 "HgN/A
7:00 AM72 °FSunny.6 mph69%29.95 "Hg10 mi
6:30 AM68 °FClear.6 mph83%29.95 "Hg10 mi
6:00 AM66 °FClear.6 mph88%29.95 "Hg10 mi
5:30 AM66 °FClear.3 mph83%29.95 "Hg10 mi
5:00 AM68 °FClear.3 mph73%29.95 "Hg10 mi
4:30 AM68 °FClear.3 mph73%29.95 "Hg10 mi
4:00 AM70 °FClear.6 mph69%29.95 "Hg10 mi
3:30 AM72 °FClear.6 mph69%29.95 "Hg10 mi
3:00 AM72 °FPassing clouds.3 mph65%29.95 "HgN/A
2:30 AM72 °FPassing clouds.3 mph65%29.98 "HgN/A
2:00 AM72 °FPassing clouds.3 mph65%29.98 "HgN/A
1:30 AM73 °FClear.3 mph61%29.98 "Hg10 mi
1:00 AM73 °FClear.3 mph61%29.98 "Hg10 mi
12:30 AM73 °FPassing clouds.3 mph65%29.98 "HgN/A
12:00 AM73 °FClear.3 mph69%29.98 "Hg10 mi
11:30 PM
Jul 28
73 °FPassing clouds.3 mph69%29.98 "HgN/A
11:00 PM75 °FPassing clouds.3 mph65%29.98 "HgN/A
10:30 PM75 °FClear.3 mph65%29.98 "Hg10 mi
10:00 PM77 °FPassing clouds.3 mph61%29.98 "HgN/A
9:30 PM77 °FPassing clouds.6 mph61%29.98 "HgN/A
9:00 PM77 °FPassing clouds.6 mph54%29.98 "HgN/A
8:30 PM81 °FSunny.6 mph42%29.98 "Hg10 mi
8:00 PM81 °FPassing clouds.3 mph39%29.98 "HgN/A
7:30 PM82 °FSunny.6 mph35%29.98 "Hg10 mi
7:00 PM84 °FSunny.8 mph31%29.98 "Hg10 mi
Weather by CustomWeather, © 2014

See weather overviewHow to use our weather pages